Location: Beekmeers
(50.8953°N, 3.6968°E)
Time: 02:25:35
(UTC+00:00)

Cosmos 1892 - Pass Details

Date: 23 May 2024
Orbit: 455 x 468 km, 82.5° (Epoch: 21 June)

Event Time Altitude Azimuth Distance (km) Brightness Sun altitude
Exits shadow 02:42:09 - 174° (S) 2,289 5.6 -8.2°
Reaches altitude 10° 02:43:50 10° 169° (S) 1,601 4.8 -8.1°
Maximum altitude 02:47:11 47° 95° (E) 620 3.4 -7.7°
Drops below altitude 10° 02:50:34 10° 21° (NNE) 1,610 6.5 -7.3°
Sets 02:52:42 0° 15° (NNE) 2,488 7.4 -7.1°
